Torna al catalogo

OPS 4682 DEB

AttivoPO
NORAD 20031·DEBRIS·🇺🇸 United States

Lanciato Apr 3, 1965 da Vandenberg Space Force Base

Loading…

Prossimi Passaggi (prossime 24 ore)

TLE

AggiornatoSource: Space-Track

Epoca: Sep 14, 2026, 05:35 UTC

1 20031U 65027BB  26257.23283006  .00000047  00000-0  13506-3 0  9991
2 20031  90.2351   1.1702 0034155 177.5265 209.7857 12.97979793778766

Traccia OPS 4682 DEB in tempo reale con AllMySat

Download on the App Store